Flag for Portugal Weather past 2 weeks in Lisbon, Portugal

Now
59 °F

Scattered clouds.


Feels Like: 56 °F
Forecast: 50 / 65 °F
Wind: 15 mph from Northwest

Location: Lisbon Portela Airport


UV Index: 5 (Moderate)

Visibility: N/A


Pressure: 30.18 "Hg

Humidity: 59%

Dew point: 45 °F

Location of LisbonLocation

Historic Weather in Lisbon

°F

Lisbon temperature yesterday

Maximum temperature yesterday: 64 °F (at 4:00 PM)
Minimum temperature yesterday: 52 °F (at 7:00 AM)
Average temperature yesterday: 58 °F

Past Weeks' High & Low Weather Summary

 TemperatureHumidityPressure
High75 °F (Apr 13, 5:30 PM)100% (Apr 10, 6:00 AM)30.18 "Hg (Apr 10, 6:00 AM)
Low48 °F (Apr 24, 5:30 AM)49% (Apr 23, 5:00 PM)29.59 "Hg (Apr 20, 3:30 PM)
Average60 °F80%29.96 "Hg
* Reported Apr 9 5:00 PM — Apr 24 5:30 PM, Lisbon, Weather by CustomWeather, © 2014

Note: Actual official high and low records may vary slightly from our data, if they occured in-between our weather recording intervals... More about our weather records

Advertising

Historic Weather Conditions — Data for Previous 24 hours

 ConditionsComfort  
Time TempWeatherWind HumidityBarometerVisibility
5:30 PM
Apr 24
59 °FScattered clouds.14 mph68%30.18 "HgN/A
5:00 PM61 °FScattered clouds.13 mph63%30.15 "HgN/A
4:30 PM61 °FPassing clouds.15 mph63%30.15 "HgN/A
4:00 PM61 °FPassing clouds.15 mph59%30.15 "HgN/A
3:30 PM61 °FScattered clouds.15 mph59%30.15 "HgN/A
3:00 PM61 °FPassing clouds.12 mph59%30.15 "HgN/A
2:30 PM57 °FScattered showers. Partly sunny.16 mph72%30.18 "HgN/A
2:00 PM61 °FPartly sunny.12 mph63%30.15 "HgN/A
1:30 PM61 °FPartly sunny.14 mph68%30.15 "HgN/A
1:00 PM61 °FPartly sunny.10 mph63%30.15 "HgN/A
12:30 PM61 °FPartly sunny.14 mph72%30.15 "HgN/A
12:00 PM59 °FScattered showers. Scattered clouds.12 mph77%30.15 "HgN/A
11:30 AM57 °FScattered showers. Scattered clouds.6 mph88%30.15 "HgN/A
11:00 AM55 °FScattered clouds.9 mph94%30.15 "HgN/A
10:30 AM55 °FRain showers. Partly sunny.10 mph82%30.15 "Hg4 mi
10:00 AM59 °FScattered clouds.6 mph77%30.15 "HgN/A
9:30 AM57 °FSprinkles. Scattered clouds.10 mph82%30.12 "HgN/A
9:00 AM59 °FPassing clouds.8 mph77%30.12 "HgN/A
8:00 AM54 °FPassing clouds.2 mph88%30.12 "HgN/A
7:30 AM52 °FPassing clouds.6 mph88%30.12 "HgN/A
7:00 AM50 °FPassing clouds.5 mph94%30.12 "HgN/A
6:30 AM48 °FPassing clouds.6 mph94%30.12 "HgN/A
6:00 AM50 °FPassing clouds.6 mph88%30.12 "HgN/A
5:30 AM48 °FPassing clouds.5 mph87%30.12 "HgN/A
5:00 AM50 °FClear.5 mph88%30.12 "Hg10 mi
4:30 AM52 °FClear.2 mph82%30.12 "Hg10 mi
4:00 AM52 °FClear.3 mph82%30.12 "Hg10 mi
3:30 AM52 °FClear.3 mph82%30.12 "Hg10 mi
3:00 AM52 °FClear.5 mph82%30.12 "Hg10 mi
2:30 AM52 °FClear.5 mph82%30.15 "Hg10 mi
2:00 AM52 °FClear.5 mph82%30.15 "Hg10 mi
1:30 AM54 °FClear.3 mph77%30.15 "Hg10 mi
1:00 AM54 °FPassing clouds.5 mph82%30.15 "HgN/A
12:30 AM54 °FClear.7 mph82%30.15 "Hg10 mi
12:00 AM54 °FClear.6 mph82%30.15 "Hg10 mi
11:00 PM
Apr 23
55 °FClear.3 mph77%30.18 "Hg10 mi
10:30 PM55 °FClear.5 mph77%30.18 "Hg10 mi
10:00 PM55 °FClear.6 mph77%30.18 "Hg10 mi
9:30 PM55 °FPassing clouds.8 mph72%30.15 "HgN/A
9:00 PM57 °FPassing clouds.7 mph67%30.15 "HgN/A
8:30 PM57 °FPassing clouds.6 mph63%30.15 "HgN/A
8:00 PM59 °FPassing clouds.7 mph59%30.15 "HgN/A
7:30 PM61 °FPassing clouds.9 mph59%30.15 "HgN/A
7:00 PM61 °FPassing clouds.9 mph59%30.12 "HgN/A
6:30 PM63 °FPassing clouds.8 mph52%30.12 "HgN/A
6:00 PM63 °FPassing clouds.10 mph49%30.12 "HgN/A
Weather by CustomWeather, © 2014

See weather overview